[[{"header":{"parameterUnit":"m.s-1","parameterCategory":1,"la1":30.2991,"la2":30.254,"lo1":-89.0895,"lo2":-89.0444,"dy":0.0017,"dx":0.0017,"nx":28,"ny":28,"refTime":"2025-05-29T03:00:00:Z","depth":0,"parameterNumber":2,"parameterNumberName":"U-component_of_WINDS"},"data":[0,0,0,0,0,0,0,0,0,0,0,0,0,0,0,0,0,0,0,0,0,0,0,0,0,0,0,0,0,0,0,0,0,0,0,0,0,0,0,0,0,0,0,0,0,0,0,0,0,0,0,0,0,0,0,0,0,0,-0.4577,-0.4576,0,-0.4506,-0.4506,-0.4505,-0.4456,-0.4456,-0.4456,-0.4455,-0.4385,-0.4384,-0.4382,0,0,0,0,0,0,0,0,0,0,0,0,0,-0.4674,-0.4673,-0.4577,-0.4576,-0.4575,-0.4506,-0.4505,-0.4505,-0.4456,-0.4456,-0.4456,-0.4455,-0.4386,-0.4384,-0.4382,0,0,0,0,0,0,0,0,0,0,0,0,0,-0.4621,-0.4672,-0.4577,-0.4543,-0.4539,-0.4507,-0.4505,-0.4504,-0.4457,-0.4456,-0.4455,-0.4455,-0.4386,-0.4384,-0.4382,-0.4379,0,0,-0.4375,-0.4374,0,0,0,0,0,0,0,0,-0.4624,-0.4617,-0.4549,-0.4545,-0.4541,-0.449,-0.4514,-0.4462,-0.4457,-0.4488,-0.4455,-0.4455,-0.4421,-0.4415,-0.4403,-0.4375,-0.4372,-0.4375,-0.4373,-0.4372,-0.4372,0,0,0,0,0,0,0,-0.4627,-0.462,-0.4549,-0.4548,-0.4543,-0.4532,-0.4524,-0.4504,-0.4458,-0.4485,-0.4482,-0.4474,-0.4418,-0.4406,-0.4401,-0.4371,-0.4375,-0.4373,-0.4371,-0.437,-0.4339,-0.434,0,0,0,0,0,0,-0.4636,-0.4623,-0.4551,-0.4547,-0.4582,-0.4531,-0.4522,-0.4507,-0.4458,-0.445,-0.4474,-0.4472,-0.441,-0.4404,-0.4399,-0.4393,-0.4372,-0.437,-0.4369,-0.4338,-0.4339,-0.434,0,0,0,0,0,0,-0.4638,-0.463,-0.4554,-0.4584,-0.4574,-0.453,-0.4513,-0.4506,-0.4493,-0.445,-0.4442,-0.447,-0.4409,-0.4402,-0.4384,-0.439,-0.4369,-0.4367,-0.4338,-0.4339,-0.4339,-0.4381,0,0,0,0,0,0,-0.4641,-0.4631,-0.4629,-0.4584,-0.4572,-0.454,-0.4514,-0.4505,-0.4489,-0.4485,-0.4443,-0.4436,-0.4408,-0.4388,-0.4382,-0.4386,-0.4365,-0.4337,-0.4338,-0.4339,-0.4379,-0.4383,-0.4387,0,0,0,0,0,-0.4645,-0.4643,-0.4629,-0.462,-0.4568,-0.454,-0.4533,-0.4501,-0.4489,-0.4487,-0.446,-0.4437,-0.439,-0.4387,-0.4379,-0.4383,-0.4337,-0.4338,-0.4339,-0.4377,-0.4382,-0.4387,0,0,0,0,0,0,-0.469,-0.4637,-0.462,-0.4604,-0.4577,-0.4532,-0.4528,-0.4507,-0.4483,-0.4481,-0.4442,-0.4433,-0.442,-0.44,-0.4396,-0.4379,-0.4361,-0.4361,-0.4392,-0.4397,-0.4401,-0.4406,-0.4363,0,0,0,0,0,-0.4697,-0.4679,-0.4634,-0.4624,-0.4611,-0.4572,-0.4559,-0.4536,-0.4507,-0.4496,-0.4467,-0.4441,-0.442,-0.4407,-0.4385,-0.4376,-0.4367,-0.4375,-0.4379,-0.4382,-0.4383,-0.4378,-0.4382,-0.4344,-0.4344,-0.4344,0,0,-0.4714,-0.4682,-0.4673,-0.4632,-0.4608,-0.4591,-0.4563,-0.4545,-0.4532,-0.4493,-0.4475,-0.4453,-0.4421,-0.4408,-0.4401,-0.4391,-0.4391,-0.4384,-0.4387,-0.4385,-0.438,-0.4383,-0.4387,-0.4345,-0.4344,-0.4344,0,0,-0.4734,-0.4708,-0.4698,-0.4675,-0.464,-0.4614,-0.4612,-0.4571,-0.4555,-0.4535,-0.4506,-0.4491,-0.4456,-0.4434,-0.4419,-0.4434,-0.4413,-0.4428,-0.4449,-0.4444,-0.4447,-0.445,-0.4457,-0.4459,-0.4429,-0.4429,-0.4429,0,-0.4759,-0.4731,-0.4695,-0.468,-0.4663,-0.4627,-0.4617,-0.4597,-0.4557,-0.4547,-0.4536,-0.4492,-0.4468,-0.445,-0.4454,-0.4442,-0.444,-0.4433,-0.445,-0.4452,-0.4454,-0.446,-0.4462,-0.4431,-0.4431,-0.443,-0.443,0,-0.4764,-0.4745,-0.4741,-0.4703,-0.4686,-0.4674,-0.4637,-0.4625,-0.4604,-0.458,-0.4562,-0.4532,-0.4505,-0.4499,-0.4478,-0.4478,-0.4474,-0.4457,-0.4438,-0.446,-0.4465,-0.4467,-0.4434,-0.4433,-0.4433,-0.4432,0,0,-0.481,-0.4754,-0.4753,-0.4736,-0.4695,-0.468,-0.4667,-0.464,-0.4631,-0.4605,-0.4594,-0.4565,-0.455,-0.4533,-0.451,-0.4506,-0.4522,-0.449,-0.4488,-0.4498,-0.4522,-0.4536,-0.4539,-0.4507,-0.4508,-0.4508,-0.4525,0,-0.4826,-0.4799,-0.4767,-0.4752,-0.4735,-0.4701,-0.4689,-0.4664,-0.4642,-0.4625,-0.4601,-0.4582,-0.4562,-0.4552,-0.4546,-0.4521,-0.4526,-0.4519,-0.4498,-0.4498,-0.4508,-0.4541,-0.4555,-0.4574,-0.4527,-0.4527,-0.4528,0,-0.484,-0.4816,-0.4799,-0.4761,-0.4753,-0.4743,-0.4716,-0.47,-0.4672,-0.4656,-0.4637,-0.4613,-0.4599,-0.4582,-0.4563,-0.4559,-0.4549,-0.4535,-0.4535,-0.4532,-0.4515,-0.4541,-0.4578,-0.4582,-0.453,-0.453,-0.453,0,-0.4878,-0.4841,-0.4826,-0.4813,-0.4768,-0.4762,-0.4743,-0.4714,-0.47,-0.4677,-0.4668,-0.4644,-0.4631,-0.4614,-0.4584,-0.4575,-0.4569,-0.4549,-0.4557,-0.4558,-0.4558,-0.4559,-0.4595,-0.455,-0.455,-0.4549,-0.4549,0,-0.4899,-0.489,-0.4843,-0.4834,-0.4824,-0.4788,-0.4779,-0.4758,-0.4732,-0.472,-0.4689,-0.4678,-0.4639,-0.4624,-0.46,-0.4589,-0.4583,-0.4571,-0.4565,-0.4575,-0.4577,-0.4568,-0.4567,-0.455,-0.455,-0.455,-0.455,0,-0.4939,-0.4907,-0.4889,-0.4848,-0.4838,-0.4832,-0.4798,-0.4789,-0.4765,-0.475,-0.4744,-0.4708,-0.4688,-0.4657,-0.4629,-0.4613,-0.4607,-0.4596,-0.4617,-0.4613,-0.4623,-0.4623,-0.4657,-0.466,-0.4611,-0.4612,-0.4612,0,-0.4955,-0.4948,-0.4907,-0.4896,-0.4878,-0.4861,-0.4847,-0.4812,-0.4799,-0.4767,-0.4762,-0.474,-0.4721,-0.4693,-0.4664,-0.4643,-0.4632,-0.4646,-0.4629,-0.4639,-0.4634,-0.4636,-0.4636,-0.465,-0.465,-0.4651,-0.4651,0,-0.4988,-0.4973,-0.4953,-0.4929,-0.4913,-0.4892,-0.4869,-0.4862,-0.4823,-0.481,-0.479,-0.4776,-0.4747,-0.4727,-0.4702,-0.4684,-0.4662,-0.4657,-0.4658,-0.4668,-0.4681,-0.4675,-0.4628,-0.4656,-0.4656,-0.4656,-0.4655,-0.4655,-0.5018,-0.501,-0.498,-0.496,-0.494,-0.492,-0.491,-0.4885,-0.4868,-0.4841,-0.4822,-0.4804,-0.4777,-0.4741,-0.4725,-0.4711,-0.4701,-0.4702,-0.4702,-0.4703,-0.4708,-0.4682,-0.4706,-0.4706,-0.4706,-0.4706,-0.4705,0,-0.505,-0.503,-0.5011,-0.4981,-0.4966,-0.4946,-0.492,-0.4909,-0.4894,-0.487,-0.4852,-0.483,-0.4811,-0.4781,-0.476,-0.4754,-0.4744,-0.475,-0.4751,-0.4747,-0.4717,-0.4719,-0.4759,-0.4759,-0.4759,-0.4759,-0.4759,-0.4759,-0.5065,-0.5052,-0.5034,-0.5011,-0.499,-0.4972,-0.496,-0.4942,-0.4923,-0.49,-0.4883,-0.4864,-0.4838,-0.4815,-0.4797,-0.4789,-0.4783,-0.4793,-0.4782,-0.4754,-0.4749,-0.4745,-0.4746,-0.4791,-0.4791,-0.4813,-0.4814,-0.4814]},{"header":{"parameterUnit":"m.s-1","parameterCategory":1,"la1":30.2991,"la2":30.254,"lo1":-89.0895,"lo2":-89.0444,"dy":0.0017,"dx":0.0017,"nx":28,"ny":28,"refTime":"2025-05-29T03:00:00:Z","depth":0,"parameterNumber":3,"parameterNumberName":"V-component_of_WINDS"},"data":[0,0,0,0,0,0,0,0,0,0,0,0,0,0,0,0,0,0,0,0,0,0,0,0,0,0,0,0,0,0,0,0,0,0,0,0,0,0,0,0,0,0,0,0,0,0,0,0,0,0,0,0,0,0,0,0,0,0,2.82,2.8202,0,2.8382,2.8384,2.8386,2.8411,2.8409,2.8407,2.8406,2.8588,2.8595,2.8601,0,0,0,0,0,0,0,0,0,0,0,0,0,2.7867,2.7873,2.82,2.8202,2.8204,2.8381,2.8384,2.8386,2.8411,2.8409,2.8407,2.8405,2.8586,2.8594,2.8601,0,0,0,0,0,0,0,0,0,0,0,0,0,2.8027,2.7875,2.8199,2.8238,2.8243,2.8381,2.8384,2.8387,2.8411,2.8409,2.8406,2.8404,2.8584,2.8593,2.8603,2.8713,0,0,2.8632,2.8636,0,0,0,0,0,0,0,0,2.8017,2.8039,2.823,2.8235,2.8242,2.8371,2.8334,2.8496,2.8412,2.8347,2.8406,2.8403,2.8518,2.8533,2.8572,2.8722,2.873,2.8633,2.8639,2.8643,2.8646,0,0,0,0,0,0,0,2.8006,2.8031,2.8272,2.8233,2.824,2.8244,2.8264,2.8365,2.8444,2.8353,2.8355,2.8377,2.852,2.8563,2.8577,2.8732,2.8633,2.8641,2.8647,2.8651,2.8979,2.8981,0,0,0,0,0,0,2.7989,2.8022,2.8266,2.8277,2.8121,2.8252,2.8274,2.8332,2.8444,2.8458,2.8379,2.8377,2.8548,2.8565,2.8583,2.8719,2.8643,2.8652,2.8657,2.8976,2.8979,2.8982,0,0,0,0,0,0,2.7982,2.8011,2.8258,2.815,2.8182,2.8261,2.8325,2.8337,2.838,2.8463,2.8477,2.8408,2.8546,2.857,2.868,2.8725,2.8656,2.8665,2.8972,2.8977,2.8981,2.8991,0,0,0,0,0,0,2.7972,2.8008,2.8052,2.8151,2.8188,2.8354,2.8328,2.8342,2.8397,2.8396,2.8494,2.8508,2.8546,2.8666,2.869,2.8737,2.8673,2.8969,2.8974,2.898,2.8987,2.8995,2.9002,0,0,0,0,0,2.796,2.8048,2.8054,2.8084,2.8245,2.8357,2.8378,2.8421,2.84,2.8444,2.8497,2.8505,2.8717,2.8677,2.8704,2.8755,2.8966,2.8973,2.8979,2.8984,2.8994,2.9002,0,0,0,0,0,0,2.7951,2.8061,2.807,2.8192,2.8265,2.8361,2.8418,2.8431,2.851,2.8506,2.8556,2.8578,2.8686,2.8732,2.8686,2.8867,2.8839,2.8851,2.8833,2.8843,2.8851,2.8837,2.8681,0,0,0,0,0,2.7964,2.8047,2.8138,2.8237,2.8273,2.8339,2.8389,2.8417,2.8493,2.8524,2.8585,2.8658,2.8741,2.8795,2.8876,2.8994,2.9014,2.9042,2.9049,2.9055,2.9065,2.9129,2.9142,2.9004,2.9004,2.9004,0,0,2.799,2.806,2.8109,2.8236,2.8296,2.8379,2.8365,2.8454,2.8515,2.8537,2.8645,2.8693,2.8777,2.8891,2.8945,2.8933,2.9108,2.9064,2.9068,2.9075,2.9137,2.915,2.9161,2.9008,2.9008,2.9007,0,0,2.808,2.8142,2.8231,2.829,2.8381,2.8424,2.8445,2.8539,2.8571,2.8681,2.8698,2.8771,2.8914,2.8973,2.9021,2.9131,2.914,2.9156,2.9195,2.9257,2.9267,2.9277,2.9315,2.9328,2.9165,2.9165,2.9165,0,2.81,2.8228,2.8274,2.8362,2.8416,2.8441,2.8529,2.8584,2.8696,2.8732,2.8718,2.8895,2.8954,2.9081,2.9108,2.9147,2.9171,2.9145,2.9262,2.9273,2.9282,2.9319,2.9333,2.9167,2.9166,2.9166,2.9166,0,2.8248,2.8336,2.8396,2.8504,2.8565,2.8653,2.871,2.8766,2.8787,2.8831,2.894,2.9012,2.9107,2.9139,2.916,2.9269,2.9258,2.9253,2.9226,2.9296,2.9331,2.9346,2.9168,2.9168,2.9168,2.9167,0,0,2.8339,2.847,2.8491,2.8539,2.864,2.8708,2.8795,2.8889,2.8935,2.9011,2.9084,2.9203,2.9198,2.9253,2.9281,2.9335,2.9415,2.9322,2.9325,2.9336,2.9537,2.954,2.9556,2.9421,2.9424,2.9427,2.9529,0,2.8439,2.8598,2.8641,2.8775,2.8855,2.8878,2.8954,2.9022,2.9065,2.9138,2.9185,2.9268,2.9255,2.9288,2.9343,2.9394,2.9456,2.9387,2.9489,2.9492,2.9466,2.9574,2.9579,2.9672,2.9543,2.9546,2.9547,0,2.8579,2.8658,2.88,2.8888,2.8923,2.8991,2.9079,2.9149,2.9227,2.9254,2.9314,2.9337,2.9427,2.9395,2.9518,2.947,2.9514,2.9545,2.955,2.956,2.9523,2.9587,2.9703,2.9717,2.957,2.9568,2.9566,0,2.8629,2.877,2.8873,2.8914,2.902,2.9067,2.9113,2.9188,2.9241,2.9317,2.9351,2.9437,2.9483,2.9548,2.9592,2.9565,2.9711,2.9683,2.9735,2.9734,2.9765,2.9762,2.9889,2.9794,2.9793,2.9793,2.9793,0,2.8737,2.8822,2.8897,2.896,2.9056,2.9103,2.9195,2.9242,2.9308,2.9379,2.9403,2.9469,2.9524,2.9596,2.9631,2.9727,2.9748,2.9771,2.9779,2.9769,2.9766,2.9798,2.9793,2.9797,2.9796,2.9795,2.9795,0,2.8809,2.8863,2.8976,2.9067,2.9092,2.9158,2.9235,2.9296,2.9338,2.9428,2.9451,2.9518,2.9605,2.9655,2.9764,2.9787,2.9893,2.9899,2.9868,2.9871,2.9919,2.9914,3.0071,3.0093,2.9984,2.9985,2.9985,0,2.8874,2.8941,2.9038,2.9088,2.9135,2.9215,2.9269,2.9317,2.9371,2.9463,2.9513,2.9601,2.9674,2.981,2.9868,2.9951,2.9958,3.0007,2.9971,2.9957,2.9958,2.9953,2.9959,3.0013,3.0014,3.0015,3.0016,0,2.8983,2.9006,2.9084,2.9171,2.9234,2.9305,2.9374,2.9413,2.9472,2.9532,2.9621,2.9678,2.9789,2.9875,2.9963,3.0008,3.0021,3.0027,3.0043,3.0033,3.0011,3.0022,2.9884,3.0023,3.0022,3.0022,3.0021,3.0021,2.9054,2.9113,2.9191,2.9276,2.9333,2.9397,2.9458,2.9509,2.9584,2.9679,2.9702,2.9795,2.9868,2.9987,3.0035,3.0107,3.0098,3.0122,3.0128,3.0133,3.0134,3.0,3.0123,3.0123,3.0123,3.0123,3.0122,0,2.9163,2.9214,2.9292,2.9389,2.9455,2.9462,2.9539,2.9593,2.9675,2.9743,2.9814,2.9915,2.9999,3.0062,3.0147,3.0193,3.0201,3.0213,3.021,3.022,3.0137,3.0114,3.0205,3.0205,3.0205,3.0205,3.0205,3.0205,2.9228,2.9328,2.936,2.9488,2.9538,2.963,2.9673,2.9731,2.9786,2.9898,2.9967,3.0008,3.0074,3.0164,3.024,3.0256,3.0286,3.0297,3.0314,3.0235,3.0226,3.0218,3.0197,3.0304,3.0304,3.0392,3.0392,3.0393]}]]